TimePST,TemperatureF,Dew PointF,Humidity,Sea Level PressureIn,VisibilityMPH,Wind Direction,Wind SpeedMPH,Gust SpeedMPH,PrecipitationIn,Events,Conditions,WindDirDegrees,DateUTC
12:55 AM,60.1,43.0,53,30.10,10.0,NNE,4.6,-,N/A,,Overcast,20,2013-01-24 08:55:00
1:55 AM,60.1,41.0,49,30.09,10.0,NNE,3.5,-,N/A,,Overcast,20,2013-01-24 09:55:00
2:55 AM,60.1,41.0,49,30.08,10.0,Calm,Calm,-,N/A,,Overcast,0,2013-01-24 10:55:00
3:55 AM,61.0,37.0,41,30.06,10.0,NE,3.5,-,N/A,,Overcast,40,2013-01-24 11:55:00
4:00 AM,-9999,-9999,N/A,-9999,-9999.0,North,-9999.0,-,N/A,,Unknown,0,2013-01-24 12:00:00
4:55 AM,61.0,37.9,42,30.07,10.0,NNE,3.5,-,N/A,,Overcast,20,2013-01-24 12:55:00
5:55 AM,61.0,37.9,42,30.09,10.0,NE,4.6,-,0.00,,Overcast,50,2013-01-24 13:55:00
6:55 AM,62.1,37.0,39,30.10,10.0,ENE,4.6,-,N/A,,Overcast,70,2013-01-24 14:55:00
7:55 AM,61.0,39.9,46,30.13,10.0,Calm,Calm,-,N/A,,Overcast,0,2013-01-24 15:55:00
8:55 AM,62.1,43.0,50,30.15,10.0,Calm,Calm,-,0.00,Rain,Light Rain,0,2013-01-24 16:55:00
9:55 AM,63.0,46.0,54,30.18,10.0,Variable,3.5,-,0.00,,Overcast,0,2013-01-24 17:55:00
10:55 AM,64.9,46.0,50,30.17,10.0,Calm,Calm,-,N/A,,Overcast,0,2013-01-24 18:55:00
11:55 AM,66.9,45.0,45,30.14,10.0,NNE,4.6,-,N/A,,Overcast,30,2013-01-24 19:55:00
12:55 PM,68.0,46.0,45,30.11,10.0,Calm,Calm,-,0.00,,Mostly Cloudy,0,2013-01-24 20:55:00
1:55 PM,68.0,48.0,49,30.09,10.0,Calm,Calm,-,N/A,,Mostly Cloudy,0,2013-01-24 21:55:00
2:55 PM,70.0,48.9,47,30.08,10.0,NNW,4.6,-,N/A,,Mostly Cloudy,330,2013-01-24 22:55:00
3:55 PM,69.1,51.1,53,30.09,10.0,West,4.6,-,N/A,,Mostly Cloudy,260,2013-01-24 23:55:00
4:55 PM,66.0,50.0,56,30.09,10.0,WNW,4.6,-,N/A,,Mostly Cloudy,290,2013-01-25 00:55:00
5:55 PM,64.0,50.0,60,30.09,10.0,NNW,5.8,-,N/A,,Mostly Cloudy,340,2013-01-25 01:55:00
6:55 PM,64.0,50.0,60,30.11,10.0,NNW,5.8,-,N/A,,Mostly Cloudy,330,2013-01-25 02:55:00
7:55 PM,62.1,50.0,65,30.11,10.0,WNW,4.6,-,0.00,Rain,Light Rain,290,2013-01-25 03:55:00
8:55 PM,62.1,52.0,70,30.10,10.0,North,8.1,-,0.01,,Overcast,350,2013-01-25 04:55:00
9:55 PM,61.0,53.1,75,30.11,10.0,East,3.5,-,0.00,Rain,Light Rain,80,2013-01-25 05:55:00
10:55 PM,61.0,54.0,78,30.08,10.0,ENE,4.6,-,0.00,,Mostly Cloudy,70,2013-01-25 06:55:00
11:55 PM,63.0,52.0,67,30.08,10.0,Calm,Calm,-,0.00,Rain,Light Rain,0,2013-01-25 07:55:00